[[{"header":{"parameterUnit":"m.s-1","parameterCategory":1,"la1":30.2991,"la2":30.254,"lo1":-89.0895,"lo2":-89.0444,"dy":0.0017,"dx":0.0017,"nx":28,"ny":28,"refTime":"2025-03-16T03:00:00:Z","depth":0,"parameterNumber":2,"parameterNumberName":"U-component_of_WINDS"},"data":[0,0,0,0,0,0,0,0,0,0,0,0,0,0,0,0,0,0,0,0,0,0,0,0,0,0,0,0,0,0,0,0,0,0,0,0,0,0,0,0,0,0,0,0,0,0,0,0,0,0,0,0,0,0,0,0,0,0,1.727,1.7271,0,1.7344,1.7345,1.7346,1.7357,1.7357,1.7356,1.7356,1.743,1.7433,1.7435,0,0,0,0,0,0,0,0,0,0,0,0,0,1.7139,1.7142,1.727,1.7271,1.7272,1.7344,1.7345,1.7346,1.7358,1.7357,1.7356,1.7355,1.7429,1.7432,1.7435,0,0,0,0,0,0,0,0,0,0,0,0,0,1.7203,1.7142,1.727,1.7287,1.7289,1.7344,1.7345,1.7346,1.7358,1.7357,1.7356,1.7355,1.7428,1.7432,1.7436,1.7479,0,0,1.7448,1.7449,0,0,0,0,0,0,0,0,1.7199,1.7208,1.7283,1.7286,1.7288,1.7341,1.7326,1.7391,1.7358,1.7332,1.7356,1.7354,1.7401,1.7407,1.7423,1.7482,1.7486,1.7448,1.745,1.7452,1.7453,0,0,0,0,0,0,0,1.7195,1.7205,1.7299,1.7284,1.7287,1.729,1.7298,1.7338,1.7371,1.7334,1.7335,1.7343,1.7402,1.7419,1.7425,1.7487,1.7448,1.7451,1.7454,1.7455,1.7586,1.7588,0,0,0,0,0,0,1.7188,1.7201,1.7297,1.7302,1.724,1.7293,1.7302,1.7325,1.737,1.7376,1.7344,1.7344,1.7413,1.742,1.7427,1.7481,1.7452,1.7456,1.7458,1.7585,1.7587,1.7588,0,0,0,0,0,0,1.7185,1.7196,1.7294,1.7252,1.7264,1.7297,1.7322,1.7327,1.7344,1.7378,1.7384,1.7356,1.7413,1.7422,1.7466,1.7484,1.7457,1.7461,1.7584,1.7586,1.7587,1.7589,0,0,0,0,0,0,1.7181,1.7195,1.7212,1.7252,1.7266,1.7332,1.7323,1.7329,1.735,1.7351,1.7391,1.7396,1.7413,1.7461,1.747,1.7489,1.7464,1.7582,1.7585,1.7587,1.7588,1.7591,1.7594,0,0,0,0,0,1.7176,1.7209,1.7212,1.7224,1.7288,1.7333,1.7341,1.7359,1.7352,1.7369,1.7391,1.7395,1.7481,1.7465,1.7476,1.7496,1.7581,1.7584,1.7587,1.7587,1.759,1.7594,0,0,0,0,0,0,1.7169,1.7214,1.7219,1.7265,1.7295,1.7335,1.7357,1.7363,1.7395,1.7394,1.7415,1.7424,1.7467,1.7486,1.7468,1.7541,1.7531,1.7535,1.7527,1.7531,1.7534,1.7528,1.7467,0,0,0,0,0,1.7173,1.7206,1.7243,1.7281,1.7296,1.7324,1.7344,1.7356,1.7387,1.74,1.7425,1.7455,1.749,1.7511,1.7544,1.7591,1.76,1.7611,1.7613,1.7616,1.7619,1.7646,1.7651,1.7597,1.7597,1.7596,0,0,1.7181,1.721,1.7229,1.728,1.7305,1.7338,1.7334,1.7369,1.7394,1.7405,1.7448,1.7468,1.7504,1.755,1.7571,1.7567,1.7637,1.7619,1.7621,1.7623,1.7649,1.7655,1.7659,1.7598,1.7598,1.7598,0,0,1.7213,1.7238,1.7273,1.7298,1.7335,1.7354,1.7362,1.7401,1.7415,1.7459,1.7468,1.7498,1.7556,1.7581,1.7601,1.7644,1.7649,1.7655,1.7669,1.7695,1.77,1.7703,1.7719,1.7724,1.7658,1.7658,1.7658,0,1.7219,1.7269,1.7289,1.7325,1.7347,1.7359,1.7394,1.7417,1.7463,1.7479,1.7473,1.7547,1.7572,1.7624,1.7634,1.7651,1.7661,1.765,1.7697,1.7702,1.7705,1.772,1.7726,1.7659,1.7659,1.7659,1.7659,0,1.7274,1.7309,1.7333,1.7378,1.7403,1.7438,1.7463,1.7486,1.7496,1.7516,1.7561,1.7591,1.7631,1.7644,1.7654,1.7698,1.7694,1.7693,1.7683,1.7711,1.7725,1.7731,1.7659,1.7659,1.7659,1.7659,0,0,1.7302,1.7359,1.7367,1.7388,1.7431,1.7459,1.7495,1.7534,1.7554,1.7585,1.7616,1.7665,1.7665,1.7688,1.7701,1.7724,1.7756,1.772,1.7721,1.7725,1.7807,1.7807,1.7814,1.776,1.7761,1.7762,1.7804,0,1.7339,1.7404,1.7424,1.7478,1.7511,1.7523,1.7555,1.7584,1.7604,1.7634,1.7656,1.769,1.7687,1.7701,1.7724,1.7747,1.7773,1.7745,1.7788,1.779,1.7779,1.7821,1.7822,1.786,1.781,1.7811,1.7812,0,1.7391,1.7424,1.7482,1.7521,1.7536,1.7564,1.7602,1.7631,1.7666,1.7678,1.7705,1.7716,1.7754,1.7743,1.7796,1.7776,1.7795,1.7809,1.7811,1.7816,1.7802,1.7826,1.7872,1.7878,1.7821,1.782,1.7819,0,1.7405,1.7465,1.7507,1.7525,1.7572,1.7591,1.7612,1.7645,1.7668,1.7702,1.7717,1.7754,1.7774,1.7803,1.7825,1.7814,1.7876,1.7866,1.7887,1.7887,1.7899,1.7897,1.7948,1.7912,1.7912,1.7912,1.7912,0,1.7444,1.7479,1.7515,1.754,1.758,1.7603,1.7641,1.7662,1.7692,1.7722,1.7736,1.7764,1.7791,1.7822,1.784,1.7881,1.789,1.7901,1.7905,1.79,1.7898,1.7912,1.791,1.7913,1.7913,1.7913,1.7912,0,1.7467,1.7492,1.7539,1.7581,1.7592,1.7619,1.7655,1.768,1.7701,1.7739,1.7749,1.7781,1.7819,1.7844,1.7892,1.7904,1.7949,1.7953,1.7937,1.7939,1.7959,1.7957,1.8019,1.8029,1.7987,1.7987,1.7988,0,1.749,1.7517,1.7561,1.7583,1.7604,1.7638,1.7662,1.7686,1.771,1.7752,1.7772,1.7812,1.7844,1.7905,1.7932,1.797,1.7974,1.7994,1.798,1.7973,1.7974,1.7972,1.7975,1.7995,1.7996,1.7996,1.7996,0,1.7527,1.7539,1.7573,1.7611,1.7639,1.767,1.7702,1.7719,1.7748,1.7774,1.7814,1.7839,1.789,1.7928,1.7969,1.799,1.7998,1.8001,1.8007,1.8002,1.7992,1.7997,1.7943,1.7999,1.7999,1.7998,1.7998,1.7998,1.7551,1.7575,1.7611,1.7648,1.7675,1.7704,1.773,1.7755,1.7788,1.7831,1.7843,1.7885,1.7919,1.7974,1.7997,1.8029,1.8027,1.8037,1.8039,1.8041,1.8041,1.7987,1.8037,1.8037,1.8037,1.8037,1.8037,0,1.7589,1.7613,1.7647,1.7691,1.772,1.7726,1.7762,1.7786,1.7822,1.7854,1.7886,1.7932,1.797,1.8001,1.8041,1.8061,1.8066,1.8071,1.8069,1.8074,1.8041,1.8031,1.8066,1.8066,1.8066,1.8066,1.8066,1.8066,1.7612,1.7654,1.767,1.7726,1.775,1.7791,1.7811,1.7838,1.7864,1.7914,1.7946,1.7967,1.7998,1.804,1.8076,1.8084,1.8098,1.8102,1.811,1.8079,1.8076,1.8073,1.8063,1.8104,1.8105,1.814,1.8141,1.8141]},{"header":{"parameterUnit":"m.s-1","parameterCategory":1,"la1":30.2991,"la2":30.254,"lo1":-89.0895,"lo2":-89.0444,"dy":0.0017,"dx":0.0017,"nx":28,"ny":28,"refTime":"2025-03-16T03:00:00:Z","depth":0,"parameterNumber":3,"parameterNumberName":"V-component_of_WINDS"},"data":[0,0,0,0,0,0,0,0,0,0,0,0,0,0,0,0,0,0,0,0,0,0,0,0,0,0,0,0,0,0,0,0,0,0,0,0,0,0,0,0,0,0,0,0,0,0,0,0,0,0,0,0,0,0,0,0,0,0,-5.4178,-5.4179,0,-5.4317,-5.4318,-5.432,-5.4326,-5.4324,-5.4323,-5.4321,-5.446,-5.4465,-5.447,0,0,0,0,0,0,0,0,0,0,0,0,0,-5.3915,-5.392,-5.4177,-5.4179,-5.4181,-5.4316,-5.4318,-5.432,-5.4326,-5.4324,-5.4322,-5.432,-5.4458,-5.4465,-5.4471,0,0,0,0,0,0,0,0,0,0,0,0,0,-5.4039,-5.3922,-5.4177,-5.42,-5.4204,-5.4316,-5.4318,-5.4321,-5.4327,-5.4324,-5.4322,-5.432,-5.4456,-5.4464,-5.4472,-5.4569,0,0,-5.4496,-5.4499,0,0,0,0,0,0,0,0,-5.4032,-5.4049,-5.4195,-5.4199,-5.4203,-5.4302,-5.4277,-5.4404,-5.4327,-5.428,-5.4321,-5.4318,-5.4409,-5.4421,-5.4452,-5.4575,-5.4581,-5.4496,-5.4501,-5.4504,-5.4507,0,0,0,0,0,0,0,-5.4024,-5.4043,-5.4232,-5.4197,-5.4202,-5.4203,-5.4218,-5.4301,-5.4356,-5.4284,-5.4285,-5.4301,-5.4411,-5.4444,-5.4455,-5.4583,-5.4496,-5.4503,-5.4508,-5.4511,-5.4797,-5.48,0,0,0,0,0,0,-5.4011,-5.4036,-5.4228,-5.4237,-5.411,-5.421,-5.4227,-5.4272,-5.4356,-5.4366,-5.4303,-5.4301,-5.4432,-5.4446,-5.446,-5.4582,-5.4504,-5.4512,-5.4516,-5.4794,-5.4798,-5.4801,0,0,0,0,0,0,-5.4005,-5.4028,-5.4222,-5.4137,-5.4161,-5.4217,-5.4268,-5.4276,-5.431,-5.437,-5.438,-5.4328,-5.4431,-5.4449,-5.4543,-5.4587,-5.4515,-5.4522,-5.4791,-5.4795,-5.4799,-5.4825,0,0,0,0,0,0,-5.3998,-5.4026,-5.4064,-5.4137,-5.4166,-5.4303,-5.4271,-5.4281,-5.4324,-5.4323,-5.4396,-5.4405,-5.443,-5.4531,-5.4551,-5.4596,-5.4528,-5.4787,-5.4793,-5.4798,-5.482,-5.4829,-5.4837,0,0,0,0,0,-5.3988,-5.4064,-5.4065,-5.4089,-5.4214,-5.4306,-5.4322,-5.435,-5.4328,-5.4366,-5.4405,-5.4403,-5.4579,-5.4541,-5.4563,-5.4611,-5.4784,-5.4791,-5.4797,-5.4816,-5.4828,-5.4837,0,0,0,0,0,0,-5.3991,-5.4074,-5.4076,-5.4178,-5.4235,-5.4307,-5.4356,-5.4361,-5.4424,-5.442,-5.4451,-5.4468,-5.4561,-5.4595,-5.4552,-5.4711,-5.4679,-5.469,-5.4686,-5.4697,-5.4705,-5.4696,-5.4535,0,0,0,0,0,-5.4004,-5.4073,-5.414,-5.4223,-5.4252,-5.4299,-5.434,-5.4357,-5.4417,-5.4441,-5.4486,-5.4543,-5.4612,-5.4656,-5.4722,-5.4825,-5.4842,-5.487,-5.4878,-5.4885,-5.4894,-5.4954,-5.4968,-5.4822,-5.4822,-5.4822,0,0,-5.4031,-5.4084,-5.4125,-5.4226,-5.4272,-5.4342,-5.4319,-5.4393,-5.4446,-5.4451,-5.4544,-5.4579,-5.4645,-5.4745,-5.4791,-5.4776,-5.4938,-5.4893,-5.4898,-5.4904,-5.4962,-5.4976,-5.4988,-5.4827,-5.4826,-5.4825,0,0,-5.4116,-5.4162,-5.4238,-5.4286,-5.4357,-5.4388,-5.4407,-5.4478,-5.4503,-5.4596,-5.4603,-5.4665,-5.4782,-5.483,-5.4869,-5.4975,-5.4976,-5.4996,-5.504,-5.5098,-5.511,-5.512,-5.516,-5.5174,-5.5005,-5.5005,-5.5005,0,-5.414,-5.4246,-5.4276,-5.4352,-5.4397,-5.4407,-5.4485,-5.4529,-5.4617,-5.4648,-5.463,-5.4779,-5.4824,-5.4936,-5.4963,-5.4993,-5.5016,-5.4988,-5.5106,-5.5116,-5.5127,-5.5165,-5.518,-5.5007,-5.5007,-5.5006,-5.5006,0,-5.4273,-5.4347,-5.44,-5.4488,-5.4538,-5.4614,-5.4656,-5.4703,-5.4716,-5.475,-5.4846,-5.4901,-5.4979,-5.5007,-5.5019,-5.5122,-5.5111,-5.5099,-5.5067,-5.5142,-5.5179,-5.5194,-5.501,-5.5009,-5.5008,-5.5008,0,0,-5.4363,-5.4469,-5.4488,-5.4529,-5.4609,-5.4667,-5.4744,-5.4823,-5.4864,-5.4924,-5.4991,-5.509,-5.5081,-5.5126,-5.5144,-5.5195,-5.5279,-5.5178,-5.518,-5.5196,-5.5398,-5.5407,-5.5423,-5.528,-5.5283,-5.5285,-5.5393,0,-5.4458,-5.4597,-5.4627,-5.4747,-5.4817,-5.4829,-5.4896,-5.4953,-5.4986,-5.505,-5.5086,-5.5158,-5.5139,-5.5167,-5.5217,-5.5258,-5.532,-5.525,-5.5342,-5.5345,-5.5327,-5.5442,-5.5452,-5.5551,-5.5407,-5.5409,-5.5411,0,-5.4587,-5.4654,-5.4781,-5.4856,-5.4886,-5.4946,-5.5022,-5.5083,-5.5148,-5.5169,-5.5221,-5.5234,-5.5315,-5.5279,-5.5392,-5.5344,-5.5384,-5.541,-5.5414,-5.5425,-5.5383,-5.5458,-5.5583,-5.5598,-5.5434,-5.5432,-5.543,0,-5.4642,-5.4764,-5.4857,-5.4891,-5.4979,-5.5022,-5.506,-5.5123,-5.517,-5.5236,-5.5267,-5.534,-5.5381,-5.5438,-5.5472,-5.5442,-5.5583,-5.5549,-5.5604,-5.5603,-5.5633,-5.5631,-5.5768,-5.5656,-5.5656,-5.5656,-5.5655,0,-5.4746,-5.4824,-5.4883,-5.494,-5.5028,-5.5063,-5.5149,-5.5187,-5.5244,-5.5308,-5.5322,-5.5383,-5.5423,-5.5489,-5.5516,-5.5607,-5.5624,-5.5644,-5.565,-5.5644,-5.5642,-5.5671,-5.5665,-5.566,-5.5659,-5.5658,-5.5657,0,-5.4823,-5.4866,-5.4968,-5.5044,-5.5065,-5.5127,-5.5192,-5.5248,-5.5283,-5.5365,-5.5386,-5.544,-5.5519,-5.5559,-5.5656,-5.5674,-5.5777,-5.5778,-5.5756,-5.5759,-5.5812,-5.5807,-5.5974,-5.5998,-5.5868,-5.5869,-5.587,0,-5.4887,-5.4948,-5.5032,-5.5077,-5.5117,-5.519,-5.5238,-5.5275,-5.5324,-5.5405,-5.5452,-5.5532,-5.5598,-5.5724,-5.5772,-5.5847,-5.5851,-5.5904,-5.5862,-5.5855,-5.5854,-5.5851,-5.5858,-5.5912,-5.5913,-5.5914,-5.5915,0,-5.4997,-5.5016,-5.5086,-5.5164,-5.5222,-5.5285,-5.5347,-5.5383,-5.543,-5.5485,-5.5567,-5.5619,-5.572,-5.58,-5.5879,-5.5918,-5.5925,-5.5928,-5.5945,-5.5939,-5.5925,-5.5936,-5.5778,-5.5924,-5.5923,-5.5922,-5.5922,-5.5922,-5.5071,-5.5127,-5.5196,-5.5274,-5.5325,-5.5383,-5.544,-5.5483,-5.5553,-5.564,-5.5657,-5.5745,-5.581,-5.5918,-5.596,-5.6029,-5.6017,-5.6041,-5.6047,-5.6053,-5.6057,-5.5913,-5.6043,-5.6043,-5.6043,-5.6042,-5.6042,0,-5.5184,-5.5229,-5.5301,-5.5389,-5.5451,-5.5453,-5.5522,-5.5574,-5.5651,-5.5712,-5.5778,-5.5874,-5.5952,-5.6007,-5.6087,-5.6132,-5.6137,-5.6152,-5.6149,-5.6159,-5.6062,-5.604,-5.6146,-5.6146,-5.6146,-5.6146,-5.6146,-5.6146,-5.525,-5.5345,-5.5373,-5.5494,-5.5539,-5.5626,-5.5666,-5.572,-5.577,-5.5876,-5.5942,-5.5978,-5.6038,-5.6122,-5.6195,-5.6209,-5.6238,-5.6253,-5.6267,-5.6176,-5.6165,-5.6155,-5.6135,-5.6259,-5.6259,-5.6359,-5.636,-5.6361]}]]